Regional Weather Roundup
Issued by NWS Albany, NY

Home | Current Version | Previous Version | Text Only | Print | Product List | Glossary On
Versions: 1 2 3 4 5 6 7 8 9 10 11 12 13 14 15 16 17 18 19 20 21 22 23 24 25 26 27
000
ASUS41 KALY 280610
RWRALY

NEW YORK STATE HOURLY WEATHER ROUNDUP
NATIONAL WEATHER SERVICE ALBANY NY
200 AM EDT THU JUL 28 2016

NOTE: "FAIR" INDICATES FEW OR NO CLOUDS BELOW 12,000 FEET WITH NO
SIGNIFICANT WEATHER AND/OR NO OBSTRUCTIONS TO VISIBILITY.

NYZ032-033-038>043-046>054-057>066-NYZ062>081-082-084-280700-
EAST


CITY           SKY/WX    TMP DP  RH WIND       PRES   REMARKS
ALBANY         PTCLDY    68  61  78 CALM      29.91R
GLENS FALLS    CLEAR     66  62  87 S3        29.89S
POUGHKEEPSIE   CLEAR     67  63  87 CALM      29.91R
NEWBURGH       CLEAR     68  63  83 CALM      29.93S
MONTGOMERY     CLEAR     65  63  93 CALM      29.92S
WHITE PLAINS   CLEAR     71  68  90 CALM      29.92R
ISLIP          CLEAR     74  73  97 SW5       29.91S
NEW YORK CITY  PTCLDY    80  72  76 S6        29.90S
CENTRAL PARK   CLEAR     80  69  69 W3        29.93S
$$

NYZ005>009-017-018-044>046-055-056-280700-
CENTRAL


CITY           SKY/WX    TMP DP  RH WIND       PRES   REMARKS
FULTON         CLOUDY    74  67  78 W6        29.91S
SYRACUSE       MOCLDY    72  65  78 CALM      29.91S
ROME           MOCLDY    66  64  93 E3        29.93R
ELMIRA         CLEAR     63  60  90 CALM      29.95F
BINGHAMTON     CLEAR     69  58  67 W5        29.98R
MONTICELLO     CLEAR     63  61  94 NE3       29.99S
$$

NYZ026>034-041>043-087-280700-
NORTH


CITY           SKY/WX    TMP DP  RH WIND       PRES   REMARKS
WATERTOWN      PTCLDY    71  67  87 S3        29.88F
FORT DRUM      NOT AVBL
MASSENA        PTCLDY    70  62  76 SW3       29.87S
SARANAC LAKE   MOCLDY    60  56  86 S3        29.93S
PLATTSBURGH    CLOUDY    70  62  76 CALM      29.86R
$$

NYZ001>004-010>016-019>021-085-280700-
WEST


CITY           SKY/WX    TMP DP  RH WIND       PRES   REMARKS
NIAGARA FALLS  CLEAR     73  65  75 SW3       29.92F
BUFFALO        PTCLDY    73  64  73 SW5       29.92F
DUNKIRK        CLEAR     64  60  87 S6        29.94F
JAMESTOWN      CLEAR     66  57  72 CALM      29.99F
WELLSVILLE     CLEAR     66  59  78 CALM      30.03F
ROCHESTER      PTCLDY    72  63  73 CALM      29.92F
PENN YAN       CLEAR     71  63  75 S5        29.95F
$$

             KEY
       WCI = WIND CHILL INDEX
       VSB = VISIBILITY
       HX  = HEAT INDEX
$$




USA.gov is the U.S. government's official web portal to all federal, state and local government web resources and services.